Regional Weather Roundup
Issued by NWS

Home | Current Version | Previous Version | Text Only | Print | Product List | Glossary On
Versions: 1 2 3 4 5 6 7 8 9 10 11 12 13 14 15 16 17 18 19 20 21 22 23 24 25 26 27 28 29 30 31 32 33 34 35 36 37 38 39 40 41 42 43 44 45 46 47 48 49 50
000
ASUS45 KTFX 260419
RWRMT
MONTANA HOURLY WEATHER ROUNDUP
NATIONAL WEATHER SERVICE GREAT FALLS MT
919 PM MST SUN JAN 25 2015

NOTE: "FAIR" INDICATES FEW OR NO CLOUDS BELOW 12000 FEET WITH NO
SIGNIFICANT WEATHER AND/OR OBSTRUCTIONS TO VISIBILITY.

* THESE STATIONS ARE NOT UNDER NWS QUALITY CONTROL. THEY DO NOT
   REPORT WEATHER SUCH AS PRECIPITATION OR FOG.

MTZ001>007-043-260500-
WEST OF THE DIVIDE
CITY           SKY/WX    TMP DP  RH WIND       PRES   REMARKS
KALISPELL      PTCLDY    30  28  92 CALM      30.17F
MISSOULA       CLEAR     39  32  76 VRB3      30.25R
BUTTE          PTCLDY    32  27  82 SE5       30.31S WCI  27
MULLAN PASS    CLEAR     41  27  58 S8        30.25F
* ANACONDA     CLEAR     50  25  38 SW17G25    N/A
* ESSEX        N/A       32  30  92 W2         N/A
* EUREKA APT   MOCLDY    39  34  82 N3        30.16S
* HAMILTON APT CLEAR     46  28  50 S10       30.25S
* LIBBY APT    PTCLDY    32  30  92 CALM      30.20S
* LINCOLN      N/A       43  27  53 SW2        N/A
* LOOKOUT PASS N/A       37  33  85 S2         N/A
* POLSON       N/A       45  30  56 SE2        N/A
* RONAN APT    PTCLDY    37  37 100 N/A        N/A
* SEELEY LAKE  N/A       32  27  82 E2         N/A
* THOMP F APT  CLEAR     26  24  92 NE2        N/A
$$

MTZ008-052>055-260500-
SOUTHWEST MONTANA
CITY           SKY/WX    TMP DP  RH WIND       PRES   REMARKS
BOZEMAN        MOCLDY    45  28  51 N8        30.26S
DILLON         PTCLDY    39  27  62 SW13      30.32F WCI  31
* W YELLOWSTON MOCLDY    31  30  96 SW1        N/A
* THREE FORKS  MOCLDY    32  32 100 N/A        N/A
* BOULDER HILL N/A       45  22  40 S9         N/A
* MONIDA PASS  N/A       25  25 100 SE8        N/A   WCI  16
* RAYNOLDS PAS N/A       30  13  49 SE19G24    N/A   WCI  18
* WHITEHALL    N/A       49  26  41 W11G20     N/A
* WISE RIVER   N/A       39  26  60 NW4G12     N/A
$$

MTZ009>010-012-014-046-048-049-054-260500-
EAST SLOPES AND CENTRAL MONTANA
CITY           SKY/WX    TMP DP  RH WIND       PRES   REMARKS
CUT BANK       PTCLDY    45  30  56 SW13      30.03S
GREAT FALLS    CLOUDY    54  28  37 SW18      30.09R
HELENA         MOCLDY    45  30  56 CALM      30.20F
MALMSTROM AFB  CLOUDY    54  28  37 SW21      30.09R
* CONRAD       MOCLDY    52  34  50 SW15G21    N/A
* DEARBORN     N/A       59  26  28 S8G13      N/A
* EAST GLACIER N/A       49  27  43 SW12G24    N/A
* MONARCH      N/A       49  23  36 SW18G24    N/A
* PENDROY      N/A       48  29  48 SW5        N/A
* ROGERS PASS  N/A       45  25  45 SE9G17     N/A
* SWEET GRASS  N/A       50  29  44 W24G32     N/A
* WHITE SULPH  N/A       45  28  51 NW3        N/A
$$

MTZ011-013-016-021-035-040-045-047-050-051-260500-
NORTH CENTRAL MONTANA
CITY           SKY/WX    TMP DP  RH WIND       PRES   REMARKS
HAVRE          MOCLDY    43  34  71 SW14      29.95S
LEWISTOWN      CLOUDY    45  30  56 SW16      30.05S
* N BAR RANCH  CLEAR     55  27  34 NW28G37   30.00R
* CHINOOK      PTCLDY    45  34  65 W13       29.92F
* CHESTER      N/A       52  31  45 W16G27     N/A
* DENTON       N/A       47  30  52 SW17G22    N/A
* GEYSER       N/A       54  26  34 SW20G26    N/A
* JUDITH GAP   N/A       48  29  48 W17G22     N/A
* LOMA         N/A       51  34  52 SW20       N/A
$$

MTZ017>020-022>027-061-062-260500-
NORTHEAST MONTANA
CITY           SKY/WX    TMP DP  RH WIND       PRES   REMARKS
GLASGOW        CLEAR     37  32  82 N7        29.91S WCI  32
GLENDIVE       CLEAR     43  34  71 W14       29.91R
JORDAN         MOCLDY    43  34  71 W5        29.94R
SIDNEY         PTCLDY    43  36  76 W13       29.87S
WOLF POINT     CLEAR     39  34  82 W12       29.90R WCI  32
* BEAVER HILL  N/A       40  35  82 SW17       N/A   WCI  31
* CIRCLE       N/A       42  37  83 W1G7       N/A
* LINDSAY DVD  N/A       46  36  68 W17G22     N/A
* NAVAJO       N/A       41  34  76 W20G26     N/A
* PLENTYWOOD A PTCLDY    39  34  82 W10       29.81R WCI  32
* POPLAR APT   CLEAR     37  34  89 N/A       29.87S
* SACO         N/A       39  33  79 W7         N/A   WCI  34
* SCOBEY APT   PTCLDY    37  28  70 N/A        N/A
$$

MTZ028>042-056>058-260500-
SOUTHCENTRAL AND SOUTHEAST MONTANA
CITY           SKY/WX    TMP DP  RH WIND       PRES   REMARKS
BAKER          PTCLDY    39  34  82 W13       29.93R WCI  31
BILLINGS       CLOUDY    52  30  43 SW15G26   30.07R
LIVINGSTON     CLOUDY    54  27  35 SW24G36   30.20R
MILES CITY     MOCLDY    43  34  71 W9        29.96F
* BIG TIMBER A CLOUDY    55  27  34 W26G35    30.15S
* FORSYTH APT  MOCLDY    45  34  65 CALM      30.00R
* LAUREL APT   CLOUDY    45  25  45 N/A        N/A
* ROUNDUP APT  CLOUDY    57  27  32 N/A        N/A
* ALZADA       N/A       41  33  73 SW9        N/A
* HYSHAM       N/A       47  26  44 W4         N/A
* LAME DEER    N/A       50  29  44 W14G19     N/A
* REED POINT   N/A       60  31  33 W12G26     N/A
* ROSCOE HILL  N/A       59  16  18 SW6G24     N/A
$$

REGIONAL REPORTS...DAKOTAS
CITY           SKY/WX    TMP DP  RH WIND       PRES   REMARKS
WILLISTON      MOCLDY    43  36  76 W14       29.79F
DICKINSON      MOCLDY    43  34  71 W17       29.81R
BEACH          CLEAR     39  37  93 W16       29.88S WCI  30
CROSBY         CLEAR     39  37  93 W14       29.75R WCI  31
TIOGA          CLEAR     37  37 100 W16G23    29.78S WCI  28
WATFORD CITY   CLEAR     39  36  89 SW13      29.80S WCI  31
BISMARCK       CLOUDY    37  30  76 W5        29.79F WCI  33
GRAND FORKS    CLOUDY    27  21  78 S15       29.78F WCI  15
FARGO          CLOUDY    28  21  75 S16       29.85F WCI  16
BUFFALO SD     PTCLDY    39  34  82 W10       29.84F WCI  32
RAPID CITY     CLEAR     34  23  64 CALM      29.95S
$$

REGIONAL REPORTS...WYOMING/IDAHO/WASHINGTON
CITY           SKY/WX    TMP DP  RH WIND       PRES   REMARKS
GILLETTE       MOCLDY    41  30  65 W12       30.07R
SHERIDAN       MOCLDY    43  28  56 VRB3      30.05S
CODY           CLOUDY    55  25  31 W7        30.18R
YELLOWSTONE LA CLOUDY    28  27  96 CALM      30.47S
SALMON         PTCLDY    23  21  92 SE3       30.41S
MULLAN PASS    CLEAR     41  27  58 S8        30.25S
SAND POINT     FOG       32  32 100 CALM      30.21S VSB 1
SPOKANE        FOG       39  39 100 NE6       30.18F VSB M1/4 WCI  35
$$

REGIONAL REPORTS...ALBERTA
CITY           SKY/WX    TMP DP  RH WIND       PRES   REMARKS
CALGARY        FAIR      46  30  54 SW10      29.91S
LETHBRIDGE     MOCLDY    52  30  43 SW16      29.94S
MEDICINE HAT   CLEAR     36  34  92 W3        29.91R
EDMONTON       MOCLDY    43  27  53 W9        29.86R
WATERTON GATE  N/A       54  25  33 SW17G30    N/A
CARDSTON       N/A       50  28  43 S5         N/A
MILK RIVER     N/A       45  32  60 W13        N/A
$$

REGIONAL REPORTS...SASKATCHEWAN
CITY           SKY/WX    TMP DP  RH WIND       PRES   REMARKS
SWIFT CURRENT  PTCLDY    37  32  82 SW10      29.84S WCI  30
REGINA         FAIR      37  32  82 W18       29.75R WCI  27
VAL MARIE      N/A       36  32  85 NW5        N/A   WCI  32
ASSINIBOIA     N/A       37  32  82 W12        N/A   WCI  29
CORONACH       N/A       37  32  82 W12        N/A   WCI  29

$$



USA.gov is the U.S. government's official web portal to all federal, state and local government web resources and services.